EHI
0 1 2 2 1 0 0 1 2 2 2 1 1 2 3 2 1 4 6 7 7 4 1 0 0 0 0 0 0 0 0 0 0 0 0 0 0 0 0 0 0 0 0
2 2 2 2 1 0 1 2 3 5 4 2 1 3 5 4 3 5 7 8 9 7 4 3 2 1 0 0 0 0 0 0 0 0 0 0 0 0 0 0 0 0 0
5 4 3 3 2 3 5 5 5 5 4 2 2 3 5 5 5 6 8 10 11 10 9 8 7 5 3 2 1 1 0 0 0 0 0 0 0 0 0 0 0 0 0
7 7 5 4 5 7 9 7 6 4 2 2 2 4 5 7 7 7 8 12 15 14 13 12 12 11 9 7 6 5 4 3 2 1 1 0 0 0 0 0 0 0 0
11 10 9 8 8 11 10 8 7 6 5 4 3 4 7 10 11 9 8 11 16 18 17 16 15 15 15 14 12 10 10 9 7 5 3 1 1 1 0 0 0 0 0
14 14 13 13 12 12 11 10 8 9 9 8 5 5 8 13 15 12 8 8 12 16 18 19 18 17 17 16 16 15 14 12 11 9 5 3 2 2 1 1 1 0 0
18 16 16 18 17 15 15 13 11 10 10 9 8 9 11 14 16 15 10 8 9 12 15 20 22 20 17 16 15 16 16 14 13 11 8 5 4 3 3 2 2 1 0
21 19 19 20 20 20 21 20 15 12 10 9 8 9 11 14 14 14 14 13 13 14 14 19 24 25 21 17 14 15 17 17 15 13 10 7 5 4 3 3 2 1 0
24 23 22 22 21 21 23 23 19 15 13 11 10 10 11 11 11 12 12 14 18 18 14 14 20 25 25 22 17 14 15 16 15 13 11 9 6 4 3 1 1 0 0
25 25 25 25 23 20 20 20 18 17 16 14 12 12 12 11 10 8 7 9 14 16 11 8 11 19 24 24 21 17 13 10 9 10 10 8 6 4 3 2 1 0 0
27 27 29 30 27 23 20 18 18 19 19 16 13 11 11 11 11 8 4 3 6 8 8 6 8 14 20 21 20 17 13 7 4 5 6 6 5 4 4 3 3 2 1
29 30 34 35 31 26 23 22 21 22 22 18 14 11 9 10 10 8 4 1 2 4 8 10 11 14 16 17 16 14 11 6 2 2 3 4 4 4 4 4 4 3 2
29 33 38 40 36 29 26 26 25 23 23 18 13 11 10 10 10 9 5 1 1 3 9 13 14 14 13 13 11 9 8 5 2 1 1 2 2 3 3 4 3 3 2
29 36 41 42 39 32 28 28 26 22 18 15 12 12 12 12 12 11 8 3 1 3 6 9 12 14 13 11 9 6 5 3 0 0 0 1 1 1 2 2 2 1 1
30 38 43 41 38 33 28 29 30 26 21 17 16 14 14 15 14 12 10 7 4 3 4 5 9 12 12 10 7 6 5 2 0 0 0 0 0 0 1 1 1 0 0
33 39 43 43 39 34 31 33 35 33 30 26 22 18 17 17 15 11 10 9 7 5 3 5 9 12 12 8 6 7 7 3 1 0 0 0 0 0 0 0 0 0 0
36 39 43 45 42 37 35 36 35 34 33 31 25 20 18 17 15 11 9 9 8 6 5 6 9 12 11 8 7 8 6 2 1 0 0 0 0 0 0 0 0 0 0
40 40 43 44 41 38 37 37 33 31 29 29 26 23 19 16 14 12 10 9 8 9 9 8 8 10 9 7 6 6 4 2 1 0 0 0 0 0 0 0 0 0 0
42 42 42 41 38 35 35 35 32 28 27 27 27 25 22 19 17 15 13 11 11 11 12 11 10 10 7 4 5 4 3 1 0 0 0 0 0 0 0 0 0 0 0
41 41 41 39 35 32 31 31 30 29 29 29 27 24 23 21 18 15 12 11 11 12 12 12 11 10 7 5 5 3 1 1 0 0 0 0 0 0 0 0 0 0 0
40 41 40 38 34 29 24 24 27 30 31 30 27 23 19 16 13 9 7 7 8 10 11 11 10 9 7 6 5 3 1 1 0 1 1 0 0 0 0 0 0 0 0
37 37 36 35 33 26 18 16 22 27 28 28 27 23 16 10 8 6 4 3 4 6 8 9 8 8 7 6 5 3 2 2 1 2 2 1 0 0 0 0 0 0 0
33 33 32 33 32 25 14 10 13 19 22 24 26 22 14 8 6 6 5 3 2 3 4 5 5 6 6 5 3 2 2 2 2 2 2 1 0 0 0 0 0 0 0
31 32 33 33 30 22 13 8 8 13 18 20 22 20 14 7 5 6 6 5 5 4 3 3 3 4 4 3 2 2 1 2 2 2 1 0 0 0 0 0 0 0 0
30 31 32 31 26 18 12 6 7 12 16 17 18 17 12 7 3 4 5 6 7 6 4 3 2 3 3 2 2 1 2 3 2 1 0 0 0 0 0 0 0 0 0
29 29 29 27 23 17 10 5 6 12 15 16 16 14 8 4 2 3 4 5 7 7 6 3 1 2 2 2 1 1 2 3 2 1 0 0 0 0 0 0 0 0 0
Wind_Speed
3 3 2 1 1 1 1 1 1 0 0 0 1 2 2 4 5 6 5 11 11 10 10 10 10 9 9 9 9 9 8 8 8 8 8 8 8 8 8 8 7 7 7
3 2 2 1 1 1 2 1 1 0 0 1 1 1 2 3 5 7 7 8 10 10 10 10 10 9 9 10 10 10 9 8 8 8 8 8 8 8 8 8 8 7 7
2 2 1 1 1 1 1 1 1 1 0 1 1 1 2 2 3 5 6 6 7 10 11 11 10 10 10 10 10 11 10 9 9 9 8 8 8 8 8 8 8 8 7
2 1 1 1 0 0 1 1 0 0 1 0 1 1 2 1 2 4 5 5 5 6 9 11 11 10 11 11 11 11 11 10 10 9 9 9 9 9 9 8 8 8 8
2 1 1 0 0 0 0 0 1 0 0 0 1 2 2 2 2 3 3 5 6 6 6 9 11 11 11 11 11 11 11 11 10 11 11 10 10 10 9 9 9 9 8
3 2 1 1 1 1 0 1 1 0 1 2 2 1 1 2 3 2 2 3 4 6 7 7 7 8 11 11 11 11 11 11 11 11 11 11 11 10 10 10 10 9 9
2 2 1 1 1 1 1 1 1 2 2 1 0 0 1 2 3 2 2 2 3 4 5 6 6 6 6 11 11 11 12 12 11 11 11 11 11 11 11 11 10 10 10
3 3 2 2 2 1 1 1 1 1 2 1 1 0 0 0 1 3 3 3 3 3 3 6 6 6 5 5 7 12 12 12 12 12 11 11 11 10 11 12 11 11 11
3 2 2 1 1 1 2 2 2 2 2 1 1 0 0 1 1 1 3 2 3 3 3 3 4 5 6 4 5 9 11 11 11 11 10 10 10 10 11 12 13 12 12
3 3 3 2 2 1 2 3 2 1 2 2 1 1 1 1 0 0 1 1 2 2 2 2 3 3 4 3 3 6 9 9 9 10 10 10 9 10 10 11 13 13 12
3 3 4 3 3 2 2 2 1 1 1 1 1 1 1 1 1 1 1 1 0 1 2 1 1 2 3 3 3 4 7 8 7 8 8 8 8 8 9 11 12 12 13
3 4 4 3 3 2 2 2 2 2 2 1 2 2 1 1 1 1 1 1 1 1 1 2 2 1 2 3 3 6 7 7 6 6 6 6 6 6 6 8 9 10 11
2 3 3 3 3 3 2 2 2 2 2 2 2 2 2 1 1 1 1 1 1 1 1 1 1 1 2 2 3 6 6 7 6 5 4 4 3 3 4 5 7 8 9
1 2 3 3 3 2 3 2 2 2 1 1 2 2 1 2 1 1 1 1 1 1 0 1 1 1 1 2 4 7 5 7 6 5 5 4 3 1 1 2 3 4 5
1 2 2 2 2 2 2 1 1 1 1 2 2 2 1 1 1 1 1 1 1 2 2 1 0 1 1 3 5 4 4 6 7 6 5 4 3 3 3 2 1 0 0
1 1 2 2 2 2 1 1 1 1 1 1 1 1 1 1 1 2 2 1 1 2 1 0 0 1 1 2 4 4 5 8 7 7 6 5 5 4 4 5 4 4 3
1 1 1 1 1 1 1 1 1 1 1 1 1 1 1 2 2 2 1 1 1 1 1 0 1 1 2 3 3 3 4 4 4 7 7 6 6 5 5 5 5 5 4
1 1 1 1 1 1 1 1 1 1 0 0 0 1 1 1 1 2 1 1 0 1 2 1 1 1 1 2 3 3 3 4 4 7 8 7 7 6 5 4 5 4 4
1 1 1 1 1 1 1 2 1 1 1 1 1 1 1 1 1 1 1 1 0 1 2 2 1 1 1 2 3 3 2 1 3 5 6 7 6 6 5 5 4 4 3
1 1 0 1 1 1 1 1 2 2 2 1 2 2 2 2 2 1 1 1 1 1 2 2 1 1 1 1 2 2 1 1 1 2 3 5 6 6 6 5 5 4 3
1 1 1 1 1 1 0 1 1 2 2 2 2 2 3 5 6 4 2 2 2 1 1 1 1 1 1 1 1 1 1 1 1 1 1 2 4 3 3 4 4 5 4
2 1 2 2 2 1 3 3 2 2 2 2 2 2 2 3 4 5 6 6 4 3 2 1 1 2 2 1 1 0 1 1 0 0 1 1 3 3 3 3 4 5 4
2 1 2 2 3 3 4 4 3 2 2 2 2 2 2 3 4 3 5 5 6 6 4 2 2 1 1 1 1 1 0 0 0 0 0 1 1 2 2 3 6 6 5
2 2 2 3 3 3 4 4 3 3 3 3 3 3 3 3 3 3 4 5 5 4 3 3 2 1 1 1 1 0 1 1 1 1 1 0 0 1 2 2 4 5 4
2 2 3 3 3 3 5 3 2 2 3 3 3 4 3 4 5 5 3 3 3 3 4 4 3 2 3 3 3 2 1 1 1 1 1 0 0 0 1 1 2 3 3
2 3 3 3 2 3 4 4 2 1 2 2 3 4 7 5 5 4 3 2 2 2 2 2 2 2 2 2 3 2 1 1 1 1 1 1 0 0 0 1 1 2 2
Wind_Direction
81 84 76 75 92 121 128 112 103 99 65 37 67 99 104 109 119 121 140 158 161 167 172 176 178 182 183 177 178 176 179 178 176 176 177 179 177 175 175 175 174 171 172
78 74 80 53 50 51 62 80 133 86 62 88 94 101 107 121 128 139 150 163 171 176 180 183 188 190 188 185 183 183 184 184 180 182 183 184 185 184 186 185 184 184 184
101 96 97 96 70 107 115 120 97 83 177 150 129 130 110 113 140 146 153 162 174 185 188 191 193 194 194 192 191 189 188 189 188 189 190 192 192 192 193 194 194 194 192
119 112 112 117 169 93 112 125 58 68 46 166 152 158 130 151 165 164 166 168 169 178 190 195 194 196 198 197 198 194 194 196 196 198 198 198 199 200 199 201 201 199 198
139 132 154 125 192 127 18 273 88 34 315 276 200 182 182 179 182 201 181 174 175 171 174 190 193 191 195 197 200 201 201 201 202 204 205 206 207 206 206 207 205 204 204
163 163 189 206 232 146 83 58 78 297 268 254 253 164 185 180 184 190 193 179 173 177 174 173 180 192 199 198 198 202 204 205 205 207 210 211 212 210 209 209 208 208 208
175 167 201 190 232 164 162 187 196 247 253 255 295 53 235 197 171 171 192 180 179 176 162 163 172 181 190 204 205 205 206 208 208 211 214 215 216 214 212 210 210 211 211
192 193 192 211 200 182 183 245 259 273 271 222 229 225 234 273 251 200 187 188 179 162 167 176 177 176 181 180 198 207 212 211 212 214 216 216 218 217 217 216 216 216 218
199 202 189 224 235 215 180 216 229 236 262 273 212 182 175 224 247 228 198 182 163 167 180 171 177 179 184 183 185 201 207 207 209 212 214 215 217 219 221 221 222 221 221
202 191 196 201 234 242 203 226 211 242 243 273 282 254 221 153 186 300 271 185 172 175 185 200 185 169 168 166 166 175 192 201 208 213 217 218 220 222 225 227 229 227 223
207 205 190 198 214 232 240 239 169 245 262 266 286 284 279 237 215 194 246 277 248 201 191 182 151 155 162 157 155 156 176 189 201 209 215 220 223 225 228 230 230 232 230
206 211 193 194 213 220 224 224 226 239 248 272 292 296 279 259 242 211 236 253 243 241 191 162 160 150 140 142 159 152 161 173 187 196 203 211 220 224 230 231 231 233 234
201 194 197 183 205 212 221 223 226 243 243 251 261 271 284 276 254 209 211 253 274 265 187 128 157 155 153 131 146 146 148 156 168 174 176 185 197 209 223 234 238 240 240
218 165 178 187 203 214 223 211 231 243 224 251 265 263 270 273 276 229 199 205 278 290 270 200 149 132 136 135 133 143 131 140 148 149 146 143 141 142 189 225 243 246 244
240 165 178 194 203 217 231 218 228 253 239 234 253 254 250 261 266 272 235 198 208 259 275 272 74 108 126 119 128 133 121 131 134 133 131 124 115 101 84 79 66 72 238
294 140 173 182 197 217 218 220 231 227 239 248 254 295 290 285 258 249 242 232 215 215 247 249 209 160 122 127 131 120 118 123 127 133 129 123 115 105 94 85 78 75 71
267 240 207 203 203 203 212 216 218 209 222 239 283 288 291 306 305 297 285 269 245 163 181 207 74 93 83 91 111 120 122 122 124 130 131 127 116 107 99 92 83 74 68
271 243 211 209 209 194 192 192 227 213 138 84 341 352 340 317 319 315 323 323 133 153 161 153 109 90 107 119 123 126 119 130 127 132 137 133 129 124 113 101 90 80 73
318 287 187 185 187 190 172 162 166 119 93 75 52 34 10 3 4 0 348 349 45 101 109 125 135 123 101 104 114 110 111 114 136 138 141 137 130 124 113 107 103 96 85
51 6 17 153 155 131 121 144 144 127 114 86 66 55 37 29 22 12 18 10 48 70 94 115 120 113 112 121 119 129 129 121 107 112 112 128 129 117 108 105 103 99 91
91 61 70 85 94 93 44 76 125 126 109 96 81 74 70 66 58 49 46 31 35 55 69 88 99 90 76 80 111 178 132 118 99 96 114 129 126 122 126 116 109 106 102
80 68 80 80 69 39 24 44 77 98 93 101 99 98 100 79 77 77 69 59 54 56 52 61 65 67 48 34 13 77 124 122 99 71 116 146 134 136 147 143 138 136 134
89 72 65 81 75 45 35 42 55 88 77 64 48 45 44 57 61 71 75 68 55 49 61 85 80 59 66 8 351 353 79 101 165 258 83 79 89 103 118 129 146 157 160
95 86 78 77 71 40 38 52 62 102 73 57 51 58 65 53 44 58 72 69 64 48 56 87 90 78 79 32 339 187 162 132 102 36 32 119 117 118 109 126 153 157 166
96 93 87 81 77 45 36 55 62 115 98 70 60 54 63 63 41 61 81 87 90 82 70 78 88 90 82 71 56 53 61 87 91 55 16 22 125 134 126 136 145 160 173
95 92 81 76 79 65 50 57 57 115 105 95 83 71 62 59 46 50 72 67 68 58 72 79 81 86 109 96 71 57 52 73 53 48 0 357 358 45 131 120 116 166 197